Location: Harwich
(41.6860°N, 70.0760°W)
Time: 01:37:03
(UTC-04:00)

Cosmos 2228 - Visible Passes

Search period start: 02 July 2016 00:00
Search period end: 12 July 2016 00:00
Orbit: 592 x 620 km, 82.5° (Epoch: 30 June)

Date Brightness Start Highest point End Pass type
(mag) Time Alt. Az. Time Alt. Az. Time Alt. Az.
02 Jul 5.7 04:13:43 10° SE 04:16:47 19° E 04:19:51 10° NE visible
03 Jul 5.0 04:25:56 10° SSE 04:29:47 31° E 04:33:39 10° NNE visible
06 Jul 5.9 03:30:01 10° ESE 03:32:06 13° E 03:34:11 10° NE visible
07 Jul 5.4 03:41:41 10° SE 03:45:03 22° E 03:48:25 10° NE visible
08 Jul 4.5 03:54:04 10° SSE 03:58:04 36° E 04:02:06 10° NNE visible
09 Jul 3.5 04:06:50 10° S 04:11:10 62° E 04:15:29 10° NNE visible
10 Jul 3.0 04:19:56 10° SSW 04:24:18 76° W 04:28:42 10° N visible
11 Jul 5.6 02:57:45 10° ESE 03:00:21 16° E 03:02:56 10° NE visible
11 Jul 3.5 04:33:20 10° SSW 04:37:32 44° WNW 04:41:43 10° N visible
